EHI
0 0 0 0 0 0 0 0 0 0 0 0 0 0 0 0 0 0 0 0 0 0 0 0 0 0 0 0 0 0 0 0 0 0 0 0 0 0 0 0 0 0 0
0 0 0 0 0 0 0 0 0 0 0 0 0 0 0 0 0 0 0 0 0 0 0 0 0 0 0 0 0 0 0 0 0 0 0 0 0 0 0 0 0 0 0
0 0 0 0 0 0 0 0 0 0 0 0 0 0 0 0 0 0 0 0 0 0 0 0 0 0 0 0 0 0 0 0 0 0 0 0 0 0 0 0 0 0 0
0 0 0 0 0 0 0 0 0 0 0 0 0 0 0 0 0 0 0 0 0 0 0 0 0 0 0 0 0 0 0 0 0 0 0 0 0 0 0 0 0 0 0
0 0 0 0 0 0 0 0 0 0 0 0 0 0 0 0 0 0 0 0 0 0 0 0 0 0 0 0 0 0 0 0 0 0 0 0 0 0 0 0 0 0 0
0 0 0 0 0 0 0 0 0 0 0 0 0 0 0 0 0 0 0 0 0 0 0 0 0 0 0 0 0 0 0 0 0 0 0 0 0 0 0 0 0 0 0
0 0 0 0 0 0 0 0 0 0 0 0 0 0 0 0 0 0 0 0 0 0 0 0 0 0 0 0 0 0 0 0 0 0 0 0 0 0 0 0 0 0 0
0 0 0 0 0 0 0 0 0 0 0 0 0 0 0 0 0 0 0 0 0 0 0 0 0 0 0 0 0 0 0 0 0 0 0 0 0 0 0 0 0 0 0
0 0 0 0 0 0 0 0 0 0 0 0 0 0 0 0 0 0 0 0 0 0 0 0 0 0 0 0 0 0 0 0 0 0 0 0 0 0 0 0 0 0 0
0 0 0 0 0 0 0 0 0 0 0 0 0 0 0 0 0 0 0 0 0 0 0 0 0 0 0 0 0 0 0 0 0 0 0 0 0 0 0 0 0 0 0
0 0 0 0 0 0 0 0 0 0 0 0 0 0 0 0 0 0 0 0 0 0 0 0 0 0 0 0 0 0 0 0 0 0 0 0 0 0 0 0 0 0 0
0 0 0 0 0 0 0 0 0 0 0 0 0 0 0 0 0 0 0 0 0 0 0 0 0 0 0 0 0 0 0 0 0 0 0 0 0 0 0 0 0 0 0
0 0 0 0 0 0 0 0 0 0 0 0 0 0 0 0 0 0 0 0 0 0 0 0 0 0 0 0 0 0 0 0 0 0 0 0 0 0 0 0 0 0 0
0 0 0 0 0 0 0 0 0 0 0 0 0 0 0 0 0 0 0 0 0 0 0 0 0 0 0 0 0 0 0 0 0 0 0 0 0 0 0 0 0 0 0
0 0 0 0 0 0 0 0 0 0 0 0 0 0 0 0 0 0 0 0 0 0 0 0 0 0 0 0 0 0 0 0 0 0 0 0 0 0 0 0 0 0 0
0 0 0 0 0 0 0 0 0 0 0 0 0 0 0 0 0 0 0 0 0 0 0 0 0 0 0 0 0 0 0 0 0 0 0 0 0 0 0 0 0 0 0
0 0 0 0 0 0 0 0 0 0 0 0 0 0 0 0 0 0 0 0 0 0 0 0 0 0 0 0 0 0 0 0 0 0 0 0 0 0 0 0 0 0 0
0 0 0 0 0 0 0 0 0 0 0 0 0 0 0 0 0 0 0 0 0 0 0 0 0 0 0 0 0 0 0 0 0 0 0 0 0 0 0 0 0 0 0
0 0 0 0 0 0 0 0 0 0 0 0 0 0 0 0 0 0 0 0 0 0 0 0 0 0 0 0 0 0 0 0 0 0 0 0 0 0 0 0 0 0 0
0 0 0 0 0 0 0 0 0 0 0 0 0 0 0 0 0 0 0 0 0 0 0 0 0 0 0 0 0 0 0 0 0 0 0 0 0 0 0 0 0 0 0
0 0 0 0 0 0 0 0 0 0 0 0 0 0 0 0 0 0 0 0 0 0 0 0 0 0 0 0 0 0 0 0 0 0 0 0 0 0 0 0 0 0 0
0 0 0 0 0 0 0 0 0 0 0 0 0 0 0 0 0 0 0 0 0 0 0 0 0 0 0 0 0 0 0 0 0 0 0 0 0 0 0 0 0 0 0
0 0 0 0 0 0 0 0 0 0 0 0 0 0 0 0 0 0 0 0 0 0 0 0 0 0 0 0 0 0 0 0 0 0 0 0 0 0 0 0 0 0 0
0 0 0 0 0 0 0 0 0 0 0 0 0 0 0 0 0 0 0 0 0 0 0 0 0 0 0 0 0 0 0 0 0 0 0 0 0 0 0 0 0 0 0
0 0 0 0 0 0 0 0 0 0 0 0 0 0 0 0 0 0 0 0 0 0 0 0 0 0 0 0 0 0 0 0 0 0 0 0 0 0 0 0 0 0 0
0 0 0 0 0 0 0 0 0 0 0 0 0 0 0 0 0 0 0 0 0 0 0 0 0 0 0 0 0 0 0 0 0 0 0 0 0 0 0 0 0 0 0
Wind_Speed
0 2 5 6 8 9 11 12 13 14 15 16 17 17 18 18 19 19 20 21 21 22 23 23 24 25 25 26 26 25 25 25 25 24 24 25 27 26 25 25 24 15 25
4 3 5 7 8 9 10 11 12 13 14 15 16 16 17 17 18 18 19 20 21 21 22 22 23 23 24 25 25 26 26 25 25 24 24 22 25 26 25 24 23 16 24
6 3 2 7 8 9 10 11 12 12 13 14 15 16 16 16 17 17 18 19 20 20 21 22 22 23 23 24 24 25 25 26 25 25 23 13 15 24 25 24 23 22 23
7 3 1 7 8 9 10 10 11 12 13 13 14 15 16 16 17 18 19 19 20 20 21 21 22 22 23 23 24 24 25 25 25 25 14 13 12 22 25 24 23 22 22
6 3 1 8 8 9 9 9 10 11 12 13 14 15 16 17 17 18 19 19 19 20 21 21 21 22 23 23 24 24 25 25 25 20 14 13 10 21 25 24 23 22 22
6 3 2 8 7 7 8 8 9 10 11 12 13 15 16 17 17 17 18 19 19 20 21 21 22 22 23 23 24 25 25 25 20 14 14 14 13 22 26 25 24 23 22
6 4 2 7 6 6 6 6 7 8 10 12 13 14 16 16 17 17 18 19 20 21 21 22 22 23 23 23 24 24 25 25 17 14 14 13 17 27 27 26 25 24 23
7 4 2 6 5 5 5 5 6 8 10 11 13 14 15 16 16 17 18 19 20 21 22 22 23 23 23 23 24 24 24 23 17 15 13 11 21 27 28 27 26 25 24
7 6 4 4 4 4 4 5 6 8 9 11 12 14 15 16 17 18 20 20 21 21 22 22 23 23 24 23 24 24 24 24 14 11 14 11 22 27 28 28 28 27 26
6 6 5 4 3 2 3 4 6 7 8 10 11 13 14 15 16 19 19 21 21 21 22 22 22 23 23 23 24 24 23 19 9 10 8 13 26 28 29 29 29 29 28
7 5 6 5 3 2 0 3 5 5 7 8 8 11 10 5 5 10 16 20 20 20 20 20 21 22 22 21 23 23 18 7 8 7 7 20 28 28 29 29 29 30 30
8 7 5 6 5 3 1 2 1 2 3 3 2 3 3 4 5 9 15 17 18 18 18 19 21 19 15 8 13 17 6 8 6 7 11 26 27 28 29 30 30 31 31
9 8 7 7 6 4 2 1 0 1 1 2 2 2 3 3 4 5 4 6 8 10 7 10 10 6 6 6 6 6 7 7 5 7 11 26 28 29 30 30 31 31 32
9 9 8 7 6 5 3 2 2 1 1 0 1 2 2 2 2 2 2 3 3 3 4 4 3 5 6 6 6 7 8 7 7 7 10 26 29 30 30 30 31 31 32
11 10 9 8 7 6 4 2 2 2 2 1 1 1 2 2 0 1 1 2 3 3 3 4 4 5 5 5 6 8 8 9 9 8 9 23 29 29 30 31 31 32 32
13 12 9 9 8 7 5 3 3 3 2 2 2 2 3 3 2 2 2 2 3 3 3 3 5 5 4 4 6 7 8 8 8 9 8 14 25 28 30 31 31 31 32
14 12 11 10 9 8 6 5 3 3 2 2 3 3 4 4 3 3 2 3 3 3 4 3 5 3 5 6 7 8 8 7 9 10 11 9 11 22 28 30 30 32 32
13 13 12 11 9 8 6 5 3 3 3 3 3 3 4 4 4 3 3 3 3 3 3 4 3 4 5 5 6 7 7 7 9 11 10 10 9 11 17 28 31 32 32
16 15 13 10 10 9 7 5 4 3 3 3 3 3 4 4 4 3 3 3 4 3 3 5 4 4 5 6 6 6 6 8 9 12 11 12 11 12 10 20 29 30 31
15 15 14 11 10 8 5 3 2 2 2 2 3 4 5 4 4 4 3 4 3 3 3 3 5 5 5 6 9 9 7 9 8 8 11 10 11 13 13 14 14 18 28
14 14 15 12 11 8 4 4 3 3 3 3 3 5 5 5 5 4 3 3 3 3 4 5 4 5 4 4 5 8 8 8 8 7 7 8 11 13 12 14 11 11 12
18 17 16 15 13 11 6 4 4 3 3 3 3 3 5 5 4 4 3 3 3 3 4 5 4 3 4 4 4 9 8 8 6 10 7 8 10 9 11 14 13 14 12
19 20 17 16 14 11 8 4 3 2 1 1 2 3 4 4 4 4 4 4 4 3 4 5 5 5 5 4 3 4 8 9 11 9 10 9 8 8 10 10 14 14 14
20 17 16 15 13 12 10 7 7 6 5 5 4 3 4 4 4 4 4 4 4 4 5 6 5 4 5 6 5 4 6 7 9 11 10 7 9 10 10 11 12 13 13
16 15 14 14 14 12 11 10 8 6 5 3 3 4 4 4 4 5 5 4 5 4 6 6 6 6 5 6 6 5 6 6 6 7 13 15 12 8 8 10 10 10 12
12 13 13 15 14 13 12 10 10 9 7 6 5 5 4 3 4 5 5 5 5 5 6 7 6 7 6 7 7 6 6 6 7 7 10 14 15 13 11 10 10 9 9
Wind_Direction
105 10 55 57 58 54 51 47 44 39 35 31 28 25 24 23 22 22 21 18 16 13 12 10 8 6 5 4 3 1 1 1 1 2 3 359 352 348 348 349 349 347 347
129 59 66 75 66 61 55 49 44 40 35 32 28 25 24 23 23 22 21 18 15 13 11 9 7 5 4 2 360 358 357 358 358 0 3 357 349 343 344 344 344 342 345
112 80 29 86 76 68 60 52 45 40 36 32 29 24 23 23 23 22 20 18 15 13 11 9 7 5 4 1 358 356 355 355 356 360 1 353 343 339 338 339 340 341 343
117 102 104 99 84 72 62 53 45 39 35 32 29 24 23 23 22 22 20 16 14 13 11 9 7 6 4 1 358 356 355 355 356 0 359 349 342 335 335 335 336 337 338
119 116 139 105 90 76 64 55 46 39 34 32 29 25 24 23 21 22 18 15 14 13 11 9 8 7 5 2 360 358 357 355 1 3 353 346 342 332 332 333 332 332 333
134 147 153 112 100 84 67 55 49 40 34 34 31 27 26 23 21 22 17 15 14 13 11 9 9 7 6 4 2 359 357 355 10 1 352 343 340 327 330 330 328 327 327
154 174 178 120 111 100 79 58 50 42 36 35 32 30 28 23 20 23 17 15 14 12 11 9 8 7 6 3 1 358 356 354 11 355 344 340 331 327 327 326 325 322 321
155 158 70 105 97 89 80 64 48 46 39 36 32 32 29 23 19 23 16 14 13 11 9 7 6 5 3 1 359 356 356 359 4 346 336 339 325 326 325 324 322 319 316
146 133 106 79 63 56 43 50 47 46 40 36 30 30 29 22 19 21 15 12 11 9 7 4 3 3 2 360 357 355 357 359 357 339 337 332 324 326 324 322 320 317 314
143 139 136 124 106 66 5 27 45 43 38 34 26 27 29 24 20 19 12 9 8 5 4 1 0 1 0 357 354 353 358 356 339 337 335 323 327 325 322 318 316 313 311
156 155 151 141 130 106 106 54 40 37 34 39 25 26 34 22 13 20 7 8 5 2 1 358 357 359 359 353 350 351 355 342 334 335 329 324 325 322 319 317 314 310 307
174 177 169 157 151 139 102 77 42 53 50 56 56 47 45 33 17 26 9 5 2 360 359 355 354 356 353 343 343 348 340 336 334 329 327 325 323 322 319 316 313 309 305
176 178 177 168 159 154 153 167 107 97 81 48 50 61 54 45 29 24 13 1 354 355 351 347 345 337 329 329 328 328 333 334 326 321 319 322 323 321 317 314 311 307 303
175 182 180 171 163 168 170 188 182 170 160 103 57 82 75 56 34 11 356 334 332 325 318 316 307 309 310 311 313 320 326 322 317 314 311 321 320 318 316 313 309 306 302
180 181 181 173 170 170 172 199 174 188 187 181 163 134 120 112 80 316 300 299 297 292 295 299 302 304 308 307 311 322 314 310 306 305 311 314 317 316 313 311 308 305 301
182 182 179 176 174 168 169 185 198 201 199 186 189 188 163 164 189 225 266 280 282 283 284 291 296 300 298 298 304 309 305 300 299 300 302 309 311 312 312 309 307 304 301
184 180 179 178 173 169 174 189 190 201 196 197 201 195 188 188 198 211 241 266 274 279 291 297 297 300 311 315 310 306 303 298 298 300 302 298 300 306 307 307 306 303 299
181 180 182 178 172 173 174 184 190 194 194 204 203 203 206 207 205 211 236 259 268 279 291 297 295 310 308 305 303 302 302 299 298 298 295 293 293 294 300 303 302 300 299
183 182 183 176 173 175 175 176 180 181 194 204 206 213 219 220 217 217 238 256 269 280 289 308 325 304 304 307 304 299 299 298 294 295 292 290 287 289 290 297 300 300 298
185 183 181 176 175 169 162 158 161 179 203 213 218 224 224 223 227 228 244 260 272 281 287 291 296 296 289 294 307 309 296 293 288 283 284 289 289 290 291 290 291 293 294
183 183 182 179 177 166 157 163 174 201 213 234 236 228 220 222 232 237 260 270 272 271 277 288 291 297 293 291 302 308 298 285 281 283 279 284 287 289 287 290 287 285 287
189 188 186 185 181 179 173 165 167 168 193 215 228 222 221 226 237 247 246 257 266 272 284 290 291 285 289 308 302 313 309 305 298 309 290 287 288 288 292 294 290 288 284
195 192 190 187 182 180 169 148 139 131 171 223 223 227 235 237 243 247 254 253 261 255 266 277 279 275 289 290 262 276 302 305 314 299 301 295 288 289 290 292 292 290 290
200 191 188 183 180 177 169 167 167 179 197 212 209 220 242 247 246 247 252 254 256 253 259 271 286 270 277 291 288 251 255 280 298 305 305 295 292 296 295 298 297 293 290
193 186 184 179 179 177 176 175 175 189 199 208 216 234 244 248 246 251 253 252 252 251 256 263 272 267 260 270 280 280 280 278 265 283 300 306 304 295 295 296 294 291 291
181 181 179 180 182 179 179 179 182 190 196 206 219 231 239 241 248 252 253 247 248 251 256 259 259 259 259 263 269 270 274 276 284 281 290 299 302 303 300 297 292 293 292